Theta_e
311 311 311 311 311 311 311 311 311 311 311 311 312 312 313 313 313 311 308 310 300 293 295 298 298 294 294 293 289 293 292 293 293 288 288 287 288 289 289 290 288 290 289 289 290 291 290 304 304 298 307 308 308 308
311 311 310 310 311 311 311 311 310 311 311 311 312 312 313 313 313 313 305 310 308 297 297 301 301 302 301 300 296 296 293 294 294 290 289 290 287 291 288 285 294 288 290 287 291 293 301 304 303 306 307 306 306 306
310 310 310 310 311 310 310 310 310 311 311 311 312 313 313 313 313 312 309 306 303 297 297 298 299 306 305 304 306 294 297 298 295 298 292 290 287 291 285 288 289 293 296 290 292 296 298 301 305 306 306 305 306 306
310 310 310 310 310 310 310 310 310 310 311 311 312 313 313 313 312 312 308 306 305 299 292 296 307 303 307 307 306 304 301 302 298 297 291 289 288 293 288 290 289 292 295 290 292 296 297 300 301 304 304 306 307 306
309 310 309 309 309 309 309 310 310 310 311 312 312 313 313 312 312 312 309 307 307 301 294 295 302 305 307 306 304 304 302 299 297 292 291 289 292 290 291 291 290 294 291 288 287 293 293 295 300 303 301 302 305 306
309 309 309 309 309 309 309 309 310 310 311 312 312 312 313 312 311 313 302 307 308 306 296 292 301 303 304 305 303 300 300 298 295 290 288 290 295 292 286 284 292 295 296 296 292 296 296 297 300 301 300 301 304 306
309 309 309 309 309 309 310 309 310 311 311 312 312 312 312 312 311 306 302 307 309 308 297 295 298 303 304 303 302 299 297 294 292 289 287 287 288 291 286 284 292 292 298 300 301 299 296 298 297 301 303 305 307 307
308 308 309 309 309 310 309 310 310 311 312 312 311 312 310 308 306 307 307 308 309 303 300 297 298 300 304 299 296 298 293 293 291 290 290 287 289 287 283 289 295 299 303 304 303 305 303 302 303 302 303 304 303 304
308 308 309 308 309 309 309 310 311 311 312 311 312 311 312 309 309 309 311 309 310 303 300 299 293 295 303 300 298 295 295 289 292 288 288 287 285 285 288 296 296 298 299 300 302 302 303 304 301 303 302 302 302 303
308 308 308 308 308 308 308 309 310 311 310 311 310 311 309 310 311 311 306 303 302 304 305 296 301 298 301 301 298 297 295 294 290 294 293 288 287 297 300 300 300 299 301 302 298 298 300 304 300 300 301 303 303 304
308 308 308 308 308 308 309 310 311 311 310 310 313 313 312 312 310 307 307 303 307 304 305 301 301 302 307 299 299 301 298 298 288 294 293 288 288 295 301 300 301 301 302 303 303 303 304 308 304 304 303 304 307 308
308 308 307 308 308 308 310 310 311 310 320 312 310 320 315 310 309 305 302 305 304 301 307 306 307 308 308 306 300 302 298 298 290 297 290 285 293 299 301 300 302 302 302 303 304 303 304 304 305 305 304 305 305 306
308 308 308 308 309 309 310 311 312 312 311 320 315 314 308 306 297 296 291 298 298 305 305 307 306 310 312 310 304 302 296 294 299 290 286 291 297 300 301 299 300 302 304 304 305 304 304 304 305 303 303 305 305 305
308 308 309 309 309 310 311 311 313 312 313 314 309 293 302 301 302 301 299 300 303 303 303 308 306 307 308 303 301 297 299 295 288 284 286 294 298 300 302 301 299 299 300 303 304 304 304 303 303 305 304 304 304 303
308 309 309 310 311 311 311 311 313 315 316 312 309 293 303 305 305 305 305 304 305 305 305 304 308 306 302 300 299 296 292 288 289 287 294 298 300 301 301 301 300 299 300 299 303 303 303 303 302 301 303 305 304 303
309 309 316 311 311 310 310 314 315 321 319 312 311 305 305 302 302 303 303 302 306 306 307 308 303 299 297 297 293 291 289 287 292 297 300 301 301 302 302 302 303 301 301 300 302 303 304 303 303 303 303 302 303 303
308 319 311 311 310 310 312 323 326 316 311 307 307 310 307 305 303 304 305 304 308 304 300 301 295 296 299 292 291 295 293 293 297 301 303 303 301 303 303 302 303 302 302 302 303 303 302 304 304 301 300 304 304 304
314 321 313 310 310 317 330 324 318 312 307 309 307 309 308 309 306 306 307 308 306 302 303 300 301 293 292 288 289 294 296 297 298 300 304 304 305 306 303 302 303 304 303 301 303 304 303 302 300 299 300 301 301 302
311 311 309 309 310 311 319 318 321 308 309 312 313 312 312 312 314 313 309 312 311 307 305 301 296 292 292 296 295 296 297 297 297 299 302 302 303 303 303 303 301 302 303 301 300 301 302 302 300 300 299 299 297 297
308 309 310 311 312 320 317 317 326 315 308 311 315 312 313 312 313 312 310 308 308 304 300 297 296 297 297 300 302 300 300 301 300 297 298 298 299 300 302 302 300 301 299 302 298 298 299 297 299 300 298 297 296 296
317 322 316 317 326 320 318 315 311 315 315 312 314 315 312 313 308 308 309 311 304 302 299 302 302 305 307 306 306 305 305 303 300 299 299 296 299 300 300 300 300 299 298 298 297 296 296 295 297 298 298 296 296 296
324 317 324 328 320 320 318 322 315 320 315 312 313 314 310 308 308 309 312 307 304 305 306 306 307 306 306 306 306 306 306 305 305 303 298 299 297 298 298 298 298 297 298 298 298 296 296 296 296 297 297 297 296 295
318 320 324 323 313 304 303 322 314 315 307 310 310 307 308 309 311 314 307 308 308 311 311 311 312 312 309 311 311 308 308 305 302 301 302 299 299 299 298 299 299 297 296 298 299 298 297 296 296 296 296 297 297 296
313 320 317 313 310 302 316 313 315 311 312 308 306 303 305 309 313 307 302 306 308 310 311 314 313 308 311 311 308 305 306 303 300 300 299 297 296 297 298 298 298 298 298 299 298 298 298 297 296 296 295 295 295 296
306 304 307 292 311 309 306 304 306 305 303 306 304 306 307 311 303 302 302 303 306 307 309 310 308 309 306 306 301 302 303 299 298 298 298 299 297 297 296 297 297 297 298 297 296 296 296 297 297 296 295 295 295 295
294 309 302 309 310 307 304 303 303 297 301 302 304 309 311 303 299 298 301 304 307 310 309 309 308 306 307 306 303 300 300 301 301 298 299 299 298 295 295 294 293 293 297 297 296 296 296 296 296 296 296 296 294 296
295 307 313 318 314 312 306 306 308 305 301 301 303 305 303 299 298 300 306 308 308 314 314 311 307 306 306 304 304 305 304 304 302 301 303 301 299 299 297 294 293 295 298 296 296 296 294 294 295 296 295 295 295 295
312 315 307 310 311 308 304 305 304 304 306 306 306 302 301 300 301 307 309 313 316 314 313 313 311 310 308 308 304 304 304 302 303 303 302 301 300 299 300 298 298 294 296 295 296 296 295 295 295 295 295 294 294 295
311 315 315 311 312 307 308 306 307 310 312 310 306 304 304 308 309 309 312 313 315 313 311 309 310 310 308 305 305 305 304 302 299 296 294 294 295 296 298 298 298 299 298 296 292 294 295 294 294 294 296 296 296 296
312 316 312 311 309 308 311 313 312 314 314 311 313 311 309 308 313 316 313 314 311 310 311 309 307 305 303 301 300 299 300 300 299 297 294 294 294 297 297 297 297 297 297 297 297 297 294 295 296 296 296 295 294 295
315 314 312 311 309 313 313 316 316 316 310 307 310 309 309 308 314 315 312 310 309 307 305 303 302 302 300 299 298 297 296 299 299 299 298 297 297 297 297 298 298 298 297 296 296 295 295 295 295 294 294 294 294 294
314 312 310 310 309 316 317 315 313 311 311 309 306 308 309 309 307 308 309 308 305 303 302 302 301 299 301 301 301 298 296 296 296 296 296 295 295 297 298 297 297 297 296 295 295 295 294 294 294 294 293 294 294 294
314 313 314 309 311 311 314 314 311 311 310 307 307 308 309 307 302 307 311 310 306 303 303 303 303 303 304 300 297 296 295 294 291 290 290 289 290 292 294 294 295 295 294 293 294 293 293 293 293 293 294 294 294 294
Wind_Speed
17 18 18 20 22 22 23 23 21 21 21 20 19 17 15 14 12 4 2 7 4 3 4 4 3 4 4 3 4 10 8 7 5 9 5 4 4 6 4 4 12 4 3 3 3 5 5 19 13 17 3 7 10 13
18 19 19 20 22 23 22 22 21 19 20 19 18 16 15 12 10 4 2 2 2 1 3 3 10 11 10 11 5 3 4 10 5 5 5 5 7 1 11 6 12 7 6 3 12 5 1 8 12 7 11 7 8 8
18 19 20 21 22 22 22 21 20 19 19 18 18 16 14 11 7 3 0 2 2 1 4 2 5 11 9 10 9 3 3 8 6 5 5 4 6 8 6 5 10 12 9 5 9 11 17 13 13 19 20 10 8 7
19 20 21 21 21 21 21 20 19 18 18 18 17 16 13 7 3 4 2 3 1 1 2 2 6 5 6 7 7 6 7 7 7 4 3 3 4 8 5 7 4 4 11 19 12 10 18 13 19 17 21 21 19 8
19 21 22 21 20 21 22 20 19 17 18 18 17 15 11 3 3 3 3 3 1 2 3 5 6 3 8 9 7 6 5 6 4 4 3 3 3 5 4 5 3 8 12 8 11 24 15 24 22 21 19 20 20 16
20 21 22 20 20 21 20 19 19 17 17 17 15 12 4 2 5 2 2 1 2 1 1 3 3 4 8 7 11 10 5 4 2 2 3 4 6 5 5 4 5 14 19 18 21 18 27 26 25 26 20 21 20 16
20 20 21 20 20 20 20 20 18 17 15 13 10 5 3 3 2 0 2 3 4 3 1 1 1 2 3 3 2 3 5 3 3 2 1 2 3 4 2 4 21 31 27 20 18 17 18 22 16 11 11 13 13 17
19 20 20 21 21 19 21 19 16 15 12 8 6 0 5 12 9 3 4 5 3 2 3 2 1 3 2 2 2 1 2 1 2 1 1 0 2 0 4 9 19 21 18 14 18 10 14 18 20 17 10 12 14 14
19 19 20 21 20 20 19 18 15 12 9 5 1 3 2 3 3 3 8 6 3 3 2 2 1 2 3 2 2 2 1 1 2 0 1 2 2 1 7 12 24 23 18 18 19 20 19 16 14 13 12 13 14 10
19 18 20 21 21 20 17 17 13 10 4 5 2 4 3 3 14 11 2 2 3 4 3 3 2 0 2 3 3 3 3 1 1 3 4 2 1 10 12 13 14 22 20 23 20 28 25 12 8 8 11 11 10 7
19 18 20 20 21 20 17 15 10 4 3 3 4 0 4 11 3 2 3 3 3 3 5 5 5 3 4 3 1 3 2 3 3 1 2 3 4 15 16 13 11 18 22 18 20 24 26 11 3 2 3 5 3 7
18 19 19 20 20 20 16 12 6 3 2 3 3 4 4 4 2 2 3 4 2 3 3 3 5 4 3 4 3 5 3 3 4 3 4 5 6 14 14 14 10 10 17 19 18 24 28 29 22 19 19 16 13 13
18 18 18 20 20 20 16 10 9 13 11 3 4 3 3 2 3 4 3 5 4 3 6 6 7 1 3 4 4 1 5 4 5 4 2 2 9 11 12 10 13 11 6 13 16 18 21 25 26 26 22 18 17 17
19 19 19 19 19 17 16 11 9 4 3 5 2 6 2 3 3 4 5 5 7 8 11 0 2 4 3 2 4 4 4 6 4 5 3 4 9 9 10 9 11 15 16 7 13 13 16 18 19 18 19 17 18 19
21 21 20 15 13 13 15 10 6 4 4 3 1 2 3 6 8 9 8 7 8 9 9 4 3 4 3 4 4 4 4 4 2 2 3 4 6 6 8 10 9 12 12 14 8 10 11 13 15 16 13 11 13 13
22 22 2 9 14 17 10 2 5 4 3 5 4 6 6 7 7 7 7 8 9 9 9 4 4 3 5 4 4 6 4 3 3 1 2 2 6 6 7 8 6 8 8 9 9 7 7 7 8 8 10 12 11 12
18 3 2 10 21 24 7 3 5 3 1 1 3 4 4 4 6 6 6 7 8 7 6 4 6 5 4 3 2 3 2 4 4 1 2 4 5 7 6 6 7 6 7 7 8 6 8 6 6 9 10 4 4 5
5 6 16 17 15 7 3 5 2 3 5 2 2 5 3 4 4 4 4 5 6 7 6 4 5 9 5 5 5 5 5 6 6 6 3 3 4 5 4 6 7 6 4 7 5 3 5 6 5 6 8 4 5 5
14 16 24 19 6 3 4 1 1 3 2 2 1 5 3 2 2 3 4 4 4 5 3 4 6 5 5 4 5 5 6 6 7 7 3 5 5 6 4 6 7 7 3 4 6 6 5 5 5 4 4 5 6 7
23 21 19 9 6 4 4 2 1 4 2 2 1 2 1 2 1 3 4 4 3 3 5 4 3 4 4 2 3 3 3 4 5 5 4 4 5 7 4 5 4 5 5 3 7 10 6 8 7 3 5 5 4 4
8 2 4 8 5 6 3 3 3 2 3 2 3 2 2 3 3 3 1 4 4 2 3 3 3 4 3 3 3 1 2 2 4 5 3 3 6 5 4 4 4 4 4 4 5 6 7 6 7 4 4 4 4 7
3 5 3 5 4 2 4 1 3 1 2 3 3 2 2 3 3 2 1 2 4 3 3 3 3 3 5 7 6 6 4 6 7 3 3 3 5 5 4 4 4 5 5 4 4 4 4 3 5 7 8 3 4 5
9 3 4 4 1 3 6 3 3 4 4 3 3 3 3 1 2 3 2 2 3 4 4 4 5 7 6 5 5 7 7 7 3 3 3 4 4 4 6 4 4 5 4 6 5 5 3 6 7 6 6 7 5 4
0 4 5 4 3 4 3 3 4 3 3 4 4 4 1 2 2 1 4 2 3 6 4 2 1 2 3 4 2 5 2 3 5 5 5 5 5 4 5 6 6 5 5 4 4 4 4 4 5 5 5 6 8 5
2 6 3 6 4 5 7 3 4 4 6 6 5 3 4 3 3 9 8 4 5 5 5 4 3 3 2 3 7 6 7 6 4 4 4 4 3 4 6 5 8 7 7 7 6 6 5 5 5 7 7 8 10 11
1 4 5 5 2 4 2 8 9 1 4 8 6 3 3 4 3 3 3 6 8 2 4 4 1 3 2 3 4 5 5 5 3 2 3 2 3 4 3 5 6 5 5 5 6 8 10 8 7 10 10 10 11 10
3 6 6 5 4 3 6 1 2 3 3 4 4 2 2 2 5 4 6 7 5 2 5 4 4 5 2 4 4 3 4 4 4 2 3 4 5 3 2 6 5 3 5 9 9 8 8 7 8 9 7 7 8 7
5 7 6 7 1 5 7 4 4 4 3 4 6 5 4 1 4 2 4 6 2 7 6 3 3 4 2 2 4 2 2 4 5 2 4 7 7 4 5 6 5 9 7 7 7 7 7 7 6 6 8 6 5 5
5 5 6 10 9 6 8 7 5 6 6 6 4 6 5 1 8 8 7 3 5 5 2 4 4 3 1 8 5 2 2 2 4 7 8 5 6 6 5 5 5 6 6 6 6 5 4 5 6 6 6 3 3 5
9 6 7 10 11 4 7 8 7 7 6 4 5 5 4 1 3 4 5 4 5 1 1 3 3 6 7 7 7 11 9 9 9 8 6 7 6 5 6 6 6 6 5 5 5 4 1 2 2 3 3 2 4 4
3 3 5 7 4 3 3 1 4 2 8 5 8 5 4 2 3 3 4 7 5 7 8 10 11 10 10 9 7 7 9 9 10 10 10 7 7 6 5 5 6 4 5 6 6 5 5 4 4 5 6 6 5 5
3 5 5 11 5 2 4 2 3 4 5 5 4 3 2 3 3 3 4 6 7 8 9 10 9 9 8 8 10 11 15 9 9 10 12 8 6 7 7 6 5 5 5 6 5 6 6 5 4 5 5 6 6 6
3 6 5 3 3 4 1 4 1 4 6 4 2 3 3 6 5 3 4 5 6 7 7 7 7 8 10 13 13 10 11 10 12 11 12 11 12 12 9 7 6 7 8 6 5 5 5 6 5 5 5 5 4 6
Wind_Direction
302 303 306 308 307 308 308 310 315 318 316 315 315 315 313 304 293 287 249 179 171 211 276 229 267 261 276 258 321 345 325 12 349 13 4 338 357 348 318 353 341 128 175 215 291 339 3 344 3 55 55 57 42 22
304 305 307 309 308 308 311 315 321 317 317 318 316 315 310 305 301 294 254 124 162 173 283 285 266 246 236 247 292 299 290 323 30 352 0 341 321 344 323 15 338 27 69 244 1 6 7 354 321 23 25 39 30 28
305 306 309 310 309 312 315 318 321 319 320 318 316 317 317 313 307 241 102 116 79 335 281 258 9 352 212 229 249 316 321 3 355 346 311 317 328 4 343 358 352 340 356 334 335 334 347 313 358 1 1 357 359 17
306 308 310 310 313 317 319 320 320 322 321 318 321 321 323 330 300 212 157 162 101 78 313 313 37 33 2 3 291 261 304 341 355 345 332 351 336 24 329 315 291 301 0 339 301 322 346 322 330 337 340 340 338 325
307 309 309 313 317 320 321 323 324 325 322 322 324 326 326 307 204 211 111 178 285 335 338 325 312 359 1 10 36 56 0 7 8 2 14 0 336 345 325 279 323 13 340 315 280 306 283 279 295 311 321 317 316 326
308 307 311 315 316 322 323 323 323 323 322 321 325 327 345 159 174 180 123 119 186 120 108 356 145 0 29 54 66 60 48 38 66 26 355 341 336 356 351 315 283 318 302 277 278 277 282 277 284 283 282 286 295 305
306 310 314 317 321 321 321 323 328 322 321 322 324 335 9 252 220 339 28 116 168 155 190 226 72 99 1 56 47 48 43 51 46 69 27 346 339 7 346 298 314 310 298 288 271 262 276 276 263 270 266 272 294 303
309 313 315 319 321 318 322 323 329 322 327 322 314 247 46 82 104 138 125 140 191 224 221 283 193 174 202 130 115 51 69 52 83 45 111 279 327 68 261 289 324 338 356 11 5 345 250 275 274 267 260 255 260 274
313 316 317 321 319 322 323 327 328 330 322 298 265 277 251 221 205 87 133 152 234 259 332 35 2 325 170 119 97 130 152 115 120 219 192 142 294 27 292 339 360 356 11 359 3 356 335 294 281 253 249 254 251 246
315 320 323 320 320 321 323 325 333 327 313 150 211 220 210 71 119 137 130 196 208 201 208 214 125 356 183 156 200 159 180 220 351 107 131 116 80 351 6 12 6 4 4 2 1 352 331 304 224 238 236 245 250 246
318 324 322 319 317 315 317 321 326 314 147 225 227 120 85 158 222 205 241 225 164 232 175 217 169 209 187 224 222 199 166 160 39 71 36 5 347 357 348 14 20 10 11 7 3 353 3 39 55 308 270 236 348 14
319 324 320 317 313 307 309 314 324 238 300 295 293 259 146 199 235 335 334 297 275 278 279 248 170 214 135 127 189 173 221 177 70 51 41 357 336 338 345 353 20 16 18 12 13 15 14 31 39 47 48 40 42 41
318 316 314 309 302 300 301 299 273 269 295 251 220 224 68 255 54 115 263 302 308 306 305 347 11 268 137 205 234 13 38 79 105 54 348 316 313 333 340 0 357 1 360 31 25 24 31 29 36 34 39 36 45 46
316 310 306 304 298 291 294 297 283 231 243 240 194 337 184 315 316 23 11 343 341 332 312 48 216 191 202 115 22 47 57 36 50 19 2 284 332 332 332 345 360 355 0 15 54 34 32 40 39 43 43 33 35 36
318 313 310 291 283 294 294 292 222 196 258 267 164 259 338 6 20 23 10 349 340 314 304 312 245 51 63 40 29 26 45 33 50 292 250 283 329 322 331 348 353 351 352 357 57 67 55 55 56 47 35 57 53 47
325 310 304 316 311 314 309 249 169 227 310 358 321 23 29 12 3 7 5 356 332 319 327 45 57 44 50 54 36 26 45 323 283 229 251 336 355 337 329 332 334 340 340 352 353 78 103 77 78 82 66 66 58 49
323 247 252 354 344 314 274 203 206 236 109 335 291 40 74 38 8 16 12 351 331 343 356 17 22 27 41 74 70 87 10 5 19 100 13 27 310 299 310 335 330 334 331 350 347 18 48 113 117 82 76 123 89 58
239 354 347 351 347 295 247 203 257 253 181 64 318 16 55 90 34 25 29 10 1 4 342 56 58 28 35 32 25 17 20 16 345 335 162 232 291 326 18 334 324 319 8 341 0 3 31 47 54 46 43 67 116 125
288 298 298 305 329 300 275 121 302 258 197 122 315 75 18 335 118 108 66 17 55 20 14 15 53 45 50 48 16 9 27 14 324 319 33 2 4 350 3 340 339 330 85 360 20 22 24 50 54 57 50 39 36 24
291 270 262 266 198 258 258 173 141 266 65 359 36 20 252 218 272 69 102 80 38 61 38 44 66 78 61 34 57 30 48 323 319 331 350 356 336 318 5 331 332 338 7 55 59 37 29 18 354 56 63 33 32 30
308 244 294 172 202 221 306 316 357 18 333 313 296 258 264 290 110 65 15 139 86 64 78 79 77 132 159 141 118 149 133 309 291 298 331 356 314 332 2 338 6 2 21 5 55 55 34 19 346 20 37 62 33 83
289 345 288 194 264 44 261 104 302 93 247 261 285 334 286 280 105 76 328 239 118 126 142 151 158 184 182 205 173 176 185 254 269 275 222 24 341 335 357 341 35 26 6 4 27 81 56 35 9 25 9 38 57 51
294 201 232 249 313 53 259 241 254 213 203 244 93 260 218 263 99 138 232 200 112 151 154 164 174 191 212 232 190 170 198 234 300 31 25 46 357 3 345 336 65 55 5 18 5 28 55 40 56 44 6 351 16 50
318 275 308 323 158 241 266 221 219 246 245 254 220 243 106 241 149 196 256 106 110 132 137 171 327 27 189 229 67 153 172 51 40 42 48 30 12 359 351 1 60 45 358 19 25 28 26 30 50 65 35 3 360 50
318 293 133 284 263 255 263 249 248 251 284 286 289 230 196 187 355 352 303 118 116 111 119 102 39 309 3 5 107 102 78 71 47 40 57 25 23 17 14 16 56 24 4 13 13 11 34 24 18 66 48 35 61 40
56 224 153 269 214 237 316 1 51 159 262 307 326 351 54 71 97 90 324 326 345 57 98 96 3 323 341 69 79 98 106 107 98 78 102 329 80 64 347 37 41 26 338 359 28 25 28 24 20 54 42 31 45 57
265 237 196 225 261 281 79 323 159 184 218 255 280 317 94 285 95 180 232 252 271 181 91 70 38 291 55 87 97 93 133 155 146 267 170 127 103 87 26 90 68 347 17 36 22 40 12 8 30 37 59 52 41 49
249 292 297 281 352 92 136 251 270 266 224 210 262 268 167 34 66 243 259 265 189 90 96 142 210 296 321 99 74 36 74 70 144 23 97 104 82 49 47 111 113 76 67 44 22 35 8 24 22 46 47 44 31 35
245 262 301 294 299 118 200 183 232 236 233 246 278 59 58 74 171 215 259 320 88 109 149 202 195 220 308 138 178 233 130 98 66 68 44 51 59 55 59 55 68 108 108 82 45 27 28 22 7 356 12 27 61 30
230 229 232 264 269 209 199 200 257 284 293 4 76 112 80 101 259 276 305 345 95 68 359 344 52 51 46 44 63 73 52 57 47 39 26 73 66 44 42 44 56 52 53 77 75 41 118 188 339 24 4 15 62 77
209 310 299 304 320 268 255 222 246 49 87 89 97 60 50 283 298 263 349 347 28 47 38 62 55 45 49 49 38 45 71 73 76 53 34 55 51 38 46 53 59 51 53 54 40 44 35 40 72 42 26 27 27 40
132 175 234 282 320 47 59 7 329 310 82 44 55 99 145 197 136 84 28 27 31 53 63 66 64 63 47 46 74 64 67 63 51 51 43 37 21 10 51 55 46 50 39 46 39 48 39 36 26 29 34 49 22 54
316 291 294 351 309 298 203 197 311 357 114 116 159 199 201 90 59 74 34 81 60 59 68 73 88 87 68 92 99 93 84 87 92 89 78 61 45 43 43 23 22 49 52 43 32 47 34 29 45 41 31 35 18 24